Volver al catálogo

ONEWEB-0305

ActivoComunicacionesPO
NORAD 49093·PAYLOAD·🇬🇧 United Kingdom

Lanzado Aug 21, 2021 desde Baikonur Cosmodrome

Loading…

Próximos Pases (próximas 24 horas)

TLE

ActualizadoSource: CelesTrak SupGP

Época: Sep 14, 2026, 22:36 UTC

1 49093C 21075U   26257.94180972 -.00001848  00000+0 -47650-2 0  2575
2 49093  87.9212 348.0373 0001893 114.5129 357.8064 13.17654174    11

Sigue ONEWEB-0305 en tiempo real con AllMySat

Download on the App Store